• In Czech Republic
  • List of Countries
  • For 7 days
  • Water Temperature
  • Satellite Maps
  • Weather Map
  • Weather Widgets
  • user-avatar
    Login

    Hourly Weather Andora

    Today, 14 December, Thursday

    Time Temperature Precipitation Wind Pressure Humidity
    00:00 +1°C° 0.1 mm 2 mps 623 mmHg 80%
    01:00 +1°C° 0.1 mm 2 mps 622 mmHg 83%
    02:00 +1°C° 0.1 mm 2 mps 622 mmHg 86%
    03:00 +1°C° 0.1 mm 2 mps 622 mmHg 89%
    04:00 +1°C° 0.2 mm 2 mps 622 mmHg 90%
    05:00 +2°C° 0.2 mm 1 mps 622 mmHg 91%
    06:00 +2°C° 0.2 mm 1 mps 622 mmHg 92%
    07:00 +2°C° 0.2 mm 1 mps 622 mmHg 89%
    08:00 +2°C° 0.2 mm 1 mps 622 mmHg 87%
    09:00 +2°C° 0.2 mm 0 mps 622 mmHg 84%
    10:00 +4°C° 0 mm 1 mps 623 mmHg 81%
    11:00 +5°C° 0 mm 1 mps 623 mmHg 77%
    12:00 +5°C° 0 mm 2 mps 623 mmHg 73%
    13:00 +5°C° 0 mm 2 mps 622 mmHg 76%
    14:00 +5°C° 0 mm 2 mps 621 mmHg 78%
    15:00 +4°C° 0 mm 2 mps 621 mmHg 80%
    16:00 +4°C° 0 mm 1 mps 620 mmHg 84%
    17:00 +3°C° 0 mm 1 mps 620 mmHg 88%
    18:00 +2°C° 0 mm 1 mps 619 mmHg 92%
    19:00 +2°C° 0 mm 1 mps 619 mmHg 92%
    20:00 +2°C° 0 mm 1 mps 619 mmHg 92%
    21:00 +2°C° 0 mm 1 mps 619 mmHg 92%
    22:00 +2°C° 0.1 mm 1 mps 619 mmHg 92%
    23:00 +2°C° 0.1 mm 1 mps 618 mmHg 93%

    Tomorrow, 15 December, Friday

    Time Temperature Precipitation Wind Pressure Humidity
    00:00 +2°C° 0.1 mm 1 mps 618 mmHg 93%
    01:00 +2°C° 0.1 mm 1 mps 618 mmHg 94%
    02:00 +2°C° 0.1 mm 1 mps 617 mmHg 95%
    03:00 +1°C° 0.1 mm 1 mps 617 mmHg 96%
    04:00 +1°C° 0.1 mm 1 mps 617 mmHg 95%
    05:00 +1°C° 0.1 mm 1 mps 616 mmHg 95%
    06:00 +1°C° 0.1 mm 1 mps 616 mmHg 95%
    07:00 -1°C° 0.7 mm 2 mps 616 mmHg 93%
    08:00 -1°C° 0.7 mm 2 mps 617 mmHg 91%
    09:00 -2°C° 0.7 mm 3 mps 617 mmHg 89%
    10:00 -1°C° 0.3 mm 3 mps 617 mmHg 83%
    11:00 -1°C° 0.3 mm 3 mps 617 mmHg 77%
    12:00 -1°C° 0.3 mm 3 mps 617 mmHg 71%
    13:00 -1°C° 0 mm 3 mps 617 mmHg 69%
    14:00 -1°C° 0 mm 3 mps 617 mmHg 66%
    15:00 -1°C° 0 mm 3 mps 617 mmHg 63%
    16:00 -4°C° 0 mm 3 mps 617 mmHg 67%
    17:00 -4°C° 0 mm 2 mps 617 mmHg 71%
    18:00 -5°C° 0 mm 2 mps 616 mmHg 75%
    19:00 -5°C° 0.1 mm 2 mps 617 mmHg 76%
    20:00 -5°C° 0.1 mm 2 mps 617 mmHg 78%
    21:00 -4°C° 0.1 mm 2 mps 618 mmHg 80%
    22:00 -5°C° 0.1 mm 2 mps 618 mmHg 80%
    23:00 -5°C° 0.1 mm 2 mps 618 mmHg 80%

    Day after tomorrow, 16 December, Saturday

    Time Temperature Precipitation Wind Pressure Humidity
    00:00 -5°C° 0.1 mm 2 mps 619 mmHg 80%
    01:00 -7°C° 0 mm 3 mps 619 mmHg 80%
    02:00 -7°C° 0 mm 3 mps 618 mmHg 81%
    03:00 -7°C° 0 mm 3 mps 618 mmHg 81%
    04:00 -8°C° 0 mm 3 mps 619 mmHg 80%
    05:00 -8°C° 0 mm 3 mps 619 mmHg 79%
    06:00 -8°C° 0 mm 3 mps 619 mmHg 78%
    07:00 -7°C° 0 mm 3 mps 620 mmHg 75%
    08:00 -6°C° 0 mm 3 mps 621 mmHg 73%
    09:00 -5°C° 0 mm 3 mps 622 mmHg 70%
    10:00 -4°C° 0 mm 3 mps 622 mmHg 66%
    11:00 -2°C° 0 mm 3 mps 622 mmHg 62%
    12:00 -1°C° 0 mm 3 mps 623 mmHg 59%
    13:00 -2°C° 0.1 mm 3 mps 623 mmHg 61%
    14:00 -2°C° 0.1 mm 3 mps 623 mmHg 63%
    15:00 -2°C° 0.1 mm 2 mps 622 mmHg 65%
    16:00 -3°C° 0.1 mm 2 mps 622 mmHg 69%
    17:00 -4°C° 0.1 mm 2 mps 622 mmHg 73%
    18:00 -6°C° 0.1 mm 2 mps 622 mmHg 77%
    19:00 -6°C° 0.1 mm 2 mps 623 mmHg 78%
    20:00 -7°C° 0.1 mm 3 mps 623 mmHg 79%
    21:00 -7°C° 0.1 mm 3 mps 624 mmHg 80%
    22:00 -7°C° 0.1 mm 3 mps 624 mmHg 80%
    23:00 -8°C° 0.1 mm 3 mps 624 mmHg 80%

    17 December, Sunday

    Time Temperature Precipitation Wind Pressure Humidity
    00:00 -8°C° 0.1 mm 3 mps 624 mmHg 80%
    01:00 -8°C° 0 mm 3 mps 624 mmHg 80%
    02:00 -9°C° 0 mm 3 mps 624 mmHg 79%
    03:00 -9°C° 0 mm 3 mps 624 mmHg 78%
    04:00 -10°C° 0 mm 3 mps 625 mmHg 77%
    05:00 -10°C° 0 mm 3 mps 625 mmHg 76%
    06:00 -10°C° 0 mm 3 mps 625 mmHg 74%
    07:00 -9°C° 0 mm 3 mps 626 mmHg 71%
    08:00 -8°C° 0 mm 3 mps 627 mmHg 68%
    09:00 -7°C° 0 mm 3 mps 628 mmHg 65%
    10:00 -6°C° 0 mm 3 mps 628 mmHg 61%
    11:00 -5°C° 0 mm 3 mps 629 mmHg 57%
    12:00 -2°C° 0 mm 3 mps 629 mmHg 53%
    13:00 -3°C° 0 mm 2 mps 629 mmHg 54%
    14:00 -3°C° 0 mm 2 mps 629 mmHg 55%
    15:00 -3°C° 0 mm 2 mps 629 mmHg 56%
    16:00 -5°C° 0 mm 2 mps 629 mmHg 59%
    17:00 -6°C° 0 mm 2 mps 629 mmHg 63%
    18:00 -9°C° 0 mm 3 mps 628 mmHg 66%
    19:00 -9°C° 0 mm 3 mps 629 mmHg 66%
    20:00 -9°C° 0 mm 3 mps 629 mmHg 66%
    21:00 -9°C° 0 mm 3 mps 630 mmHg 66%
    22:00 -8°C° 0 mm 3 mps 630 mmHg 66%
    23:00 -8°C° 0 mm 3 mps 630 mmHg 67%

    18 December, Monday

    Time Temperature Precipitation Wind Pressure Humidity
    00:00 -7°C° 0 mm 2 mps 630 mmHg 67%
    01:00 -7°C° 0 mm 2 mps 630 mmHg 69%
    02:00 -7°C° 0 mm 2 mps 630 mmHg 71%
    03:00 -7°C° 0 mm 2 mps 630 mmHg 72%
    04:00 -7°C° 0 mm 2 mps 630 mmHg 74%
    05:00 -7°C° 0 mm 2 mps 630 mmHg 75%
    06:00 -7°C° 0 mm 2 mps 630 mmHg 76%
    07:00 -6°C° 0 mm 2 mps 631 mmHg 74%
    08:00 -5°C° 0 mm 2 mps 632 mmHg 72%
    09:00 -4°C° 0 mm 2 mps 632 mmHg 70%
    10:00 -2°C° 0 mm 2 mps 633 mmHg 67%
    11:00 -1°C° 0 mm 2 mps 633 mmHg 64%
    12:00 +2°C° 0 mm 2 mps 633 mmHg 60%
    13:00 +2°C° 0 mm 2 mps 633 mmHg 63%
    14:00 +1°C° 0 mm 2 mps 632 mmHg 66%
    15:00 +1°C° 0 mm 2 mps 632 mmHg 68%
    16:00 -2°C° 0 mm 3 mps 631 mmHg 72%
    17:00 -4°C° 0 mm 3 mps 631 mmHg 75%
    18:00 -6°C° 0 mm 3 mps 630 mmHg 78%
    19:00 -6°C° 0 mm 3 mps 630 mmHg 76%
    20:00 -6°C° 0 mm 3 mps 631 mmHg 74%
    21:00 -6°C° 0 mm 3 mps 631 mmHg 73%
    22:00 -5°C° 0 mm 3 mps 631 mmHg 73%
    23:00 -5°C° 0 mm 3 mps 631 mmHg 74%

    19 December, Tuesday

    Time Temperature Precipitation Wind Pressure Humidity
    00:00 -4°C° 0 mm 3 mps 631 mmHg 75%
    01:00 -4°C° 0 mm 3 mps 631 mmHg 76%
    02:00 -2°C° 0 mm 3 mps 631 mmHg 78%
    03:00 -2°C° 0 mm 3 mps 631 mmHg 80%
    04:00 -1°C° 0 mm 3 mps 631 mmHg 81%
    05:00 -1°C° 0 mm 3 mps 631 mmHg 83%
    06:00 -1°C° 0 mm 3 mps 631 mmHg 85%
    07:00 0°C° 0 mm 3 mps 631 mmHg 84%
    08:00 0°C° 0 mm 3 mps 631 mmHg 84%
    09:00 +1°C° 0 mm 3 mps 632 mmHg 83%
    10:00 +2°C° 0 mm 3 mps 632 mmHg 81%
    11:00 +3°C° 0 mm 3 mps 632 mmHg 78%
    12:00 +4°C° 0 mm 3 mps 632 mmHg 76%
    13:00 +3°C° 0 mm 3 mps 632 mmHg 77%
    14:00 +3°C° 0 mm 3 mps 632 mmHg 78%
    15:00 +3°C° 0 mm 3 mps 632 mmHg 79%
    16:00 +2°C° 0 mm 3 mps 632 mmHg 82%
    17:00 +1°C° 0 mm 3 mps 632 mmHg 85%
    18:00 0°C° 0 mm 3 mps 631 mmHg 87%
    19:00 0°C° 0.1 mm 3 mps 632 mmHg 88%
    20:00 +1°C° 0.1 mm 3 mps 632 mmHg 88%
    21:00 +1°C° 0.1 mm 3 mps 632 mmHg 88%
    22:00 +1°C° 0.1 mm 3 mps 632 mmHg 88%
    23:00 +1°C° 0.1 mm 3 mps 632 mmHg 88%
    Show more